Location: Canazei
(46.4667°N, 11.7667°E)
Time: 06:11:15
(UTC+00:00)

Cosmos 1300 Rocket - Pass Details

Date: 21 April 2021
Orbit: 602 x 625 km, 82.5° (Epoch: 14 May)

Event Time Altitude Azimuth Distance (km) Brightness Sun altitude
Rises 01:52:25 0° 354° (N) 2,923 7.6 -21.4°
Reaches altitude 10° 01:54:43 10° 360° (N) 2,011 6.8 -21.2°
Maximum altitude 01:59:05 53° 78° (ENE) 770 4.3 -20.6°
Enters shadow 02:02:59 13° 154° (SSE) 1,827 5.8 -20.2°
